Location: Waco, TX
(31.5481°N, 97.1672°W)
Time: 09:46:11
(UTC-06:00)

Tiangong 2 - Visible Passes

Search period start: 15 December 2017 00:00
Search period end: 25 December 2017 00:00
Orbit: 386 x 390 km, 42.8° (Epoch: 14 December)

Date Brightness Start Highest point End Pass type
(mag) Time Alt. Az. Time Alt. Az. Time Alt. Az.
17 Dec 3.5 19:10:09 10° S 19:11:09 15° S 19:11:09 15° S visible
18 Dec 4.3 19:47:36 10° WSW 19:48:06 14° WSW 19:48:06 14° WSW visible
19 Dec 1.5 18:49:20 10° SW 18:52:22 45° SE 18:52:40 44° SE visible
20 Dec 3.2 19:27:42 10° W 19:29:28 26° WNW 19:29:28 26° WNW visible
21 Dec 1.1 18:29:03 10° WSW 18:32:12 76° NNW 18:33:54 25° NE visible
22 Dec 2.9 19:08:06 10° WNW 19:10:34 23° NNW 19:10:34 23° NNW visible
23 Dec 2.1 18:09:07 10° W 18:12:06 36° NNW 18:14:53 11° NE visible
24 Dec 3.3 18:48:41 10° NW 18:50:45 16° NNW 18:51:27 15° N visible
